| time (UTC) | temp F | wind direction | speed MPH | gust MPH | rain 1hr in | rain 24hr in | rain mn in | humidity % | barometer mb |
| 20260507005934 | 57 | 244 | 3.0 | 6.0 | 0.00 | 0.06 | 0.06 | 94 | 1009.7 |
| 20260507005421 | 56 | 184 | 3.0 | 6.0 | 0.00 | 0.06 | 0.06 | 94 | 1009.9 |
| 20260507004921 | 56 | 190 | 3.0 | 6.0 | 0.00 | 0.06 | 0.06 | 94 | 1009.9 |
| 20260507004421 | 56 | 184 | 3.0 | 6.0 | 0.00 | 0.06 | 0.06 | 94 | 1009.8 |
| 20260507003922 | 56 | 240 | 3.0 | 6.0 | 0.00 | 0.06 | 0.06 | 94 | 1009.9 |
| 20260507003421 | 56 | 250 | 3.0 | 5.0 | 0.00 | 0.06 | 0.06 | 94 | 1009.8 |
| 20260507002919 | 56 | 161 | 2.0 | 4.0 | 0.00 | 0.06 | 0.06 | 94 | 1009.8 |
| 20260507002419 | 56 | 157 | 3.0 | 7.0 | 0.00 | 0.06 | 0.06 | 94 | 1009.7 |
| 20260507001910 | 56 | 200 | 3.0 | 7.0 | 0.00 | 0.06 | 0.06 | 94 | 1009.7 |
| 20260507001410 | 56 | 237 | 3.0 | 6.0 | 0.00 | 0.06 | 0.06 | 93 | 1009.7 |
| 20260507001133 | 56 | 179 | 3.0 | 6.0 | 0.00 | 0.06 | 0.06 | 93 | 1009.7 |
| 20260507000412 | 56 | 177 | 3.0 | 6.0 | 0.00 | 0.06 | 0.06 | 93 | 1009.7 |
| 20260506235905 | 57 | 215 | 3.0 | 6.0 | 0.00 | 0.06 | 0.06 | 93 | 1009.7 |
| 20260506235846 | 57 | 202 | 3.0 | 6.0 | 0.00 | 0.06 | 0.06 | 93 | 1009.7 |
| 20260506234905 | 57 | 223 | 3.0 | 6.0 | 0.00 | 0.06 | 0.06 | 93 | 1009.7 |
| 20260506234405 | 57 | 272 | 3.0 | 7.0 | 0.00 | 0.06 | 0.06 | 93 | 1009.6 |
| 20260506233905 | 57 | 203 | 3.0 | 7.0 | 0.00 | 0.06 | 0.06 | 93 | 1009.6 |
| 20260506233405 | 57 | 238 | 3.0 | 6.0 | 0.00 | 0.06 | 0.06 | 93 | 1009.5 |
| 20260506232904 | 57 | 252 | 3.0 | 8.0 | 0.01 | 0.06 | 0.06 | 93 | 1009.5 |
| 20260506232406 | 57 | 192 | 4.0 | 8.0 | 0.01 | 0.06 | 0.06 | 93 | 1009.5 |
| 20260506231905 | 57 | 209 | 4.0 | 8.0 | 0.00 | 0.06 | 0.06 | 93 | 1009.6 |
| 20260506231406 | 57 | 221 | 3.0 | 6.0 | 0.00 | 0.06 | 0.06 | 93 | 1009.6 |
| 20260506230906 | 57 | 194 | 3.0 | 6.0 | 0.00 | 0.06 | 0.06 | 93 | 1009.6 |
| 20260506230623 | 57 | 357 | 3.0 | 8.0 | 0.00 | 0.06 | 0.06 | 93 | 1009.6 |
| 20260506225900 | 57 | 229 | 3.0 | 8.0 | 0.00 | 0.06 | 0.06 | 93 | 1009.6 |
| 20260506225354 | 57 | 154 | 3.0 | 7.0 | 0.00 | 0.06 | 0.06 | 92 | 1009.7 |
| 20260506224851 | 57 | 219 | 3.0 | 5.0 | 0.00 | 0.06 | 0.06 | 92 | 1009.6 |
| 20260506224335 | 57 | 161 | 3.0 | 5.0 | 0.00 | 0.06 | 0.06 | 92 | 1009.5 |
| 20260506223835 | 57 | 201 | 3.0 | 5.0 | 0.00 | 0.06 | 0.06 | 92 | 1009.5 |
| 20260506223335 | 58 | 184 | 3.0 | 5.0 | 0.00 | 0.06 | 0.06 | 92 | 1009.4 |
| 20260506223102 | 58 | 175 | 3.0 | 5.0 | 0.00 | 0.05 | 0.05 | 92 | 1009.4 |
| 20260506222559 | 58 | 192 | 3.0 | 5.0 | 0.00 | 0.05 | 0.05 | 92 | 1009.5 |
| 20260506221836 | 58 | 188 | 3.0 | 5.0 | 0.00 | 0.05 | 0.05 | 92 | 1009.5 |
| 20260506221336 | 58 | 211 | 3.0 | 6.0 | 0.00 | 0.05 | 0.05 | 92 | 1009.5 |
| 20260506220830 | 58 | 142 | 3.0 | 6.0 | 0.00 | 0.05 | 0.05 | 91 | 1009.7 |
| 20260506220330 | 58 | 160 | 4.0 | 6.0 | 0.00 | 0.05 | 0.05 | 91 | 1009.8 |
| 20260506215830 | 58 | 173 | 3.0 | 6.0 | 0.00 | 0.05 | 0.05 | 91 | 1009.9 |
| 20260506215327 | 59 | 191 | 3.0 | 6.0 | 0.00 | 0.05 | 0.05 | 91 | 1009.8 |
| 20260506214825 | 59 | 275 | 2.0 | 6.0 | 0.00 | 0.05 | 0.05 | 90 | 1009.8 |
| 20260506214547 | 59 | 174 | 2.0 | 7.0 | 0.00 | 0.05 | 0.05 | 90 | 1010.0 |
| 20260506213818 | 59 | 171 | 3.0 | 7.0 | 0.00 | 0.05 | 0.05 | 90 | 1009.9 |
| 20260506213318 | 59 | 174 | 4.0 | 8.0 | 0.00 | 0.05 | 0.05 | 90 | 1009.9 |
| 20260506212813 | 60 | 228 | 4.0 | 9.0 | 0.00 | 0.05 | 0.05 | 90 | 1010.0 |
| 20260506212313 | 60 | 247 | 4.0 | 11.0 | 0.00 | 0.05 | 0.05 | 89 | 1010.0 |
| 20260506211813 | 60 | 221 | 4.0 | 11.0 | 0.00 | 0.05 | 0.05 | 89 | 1010.0 |
| 20260506211312 | 60 | 197 | 4.0 | 8.0 | 0.00 | 0.05 | 0.05 | 89 | 1010.1 |
| 20260506210812 | 60 | 198 | 3.0 | 8.0 | 0.00 | 0.05 | 0.05 | 90 | 1010.2 |
| 20260506210313 | 60 | 186 | 3.0 | 9.0 | 0.00 | 0.05 | 0.05 | 90 | 1010.2 |
| 20260506205813 | 60 | 286 | 4.0 | 9.0 | 0.00 | 0.05 | 0.05 | 90 | 1010.2 |
| 20260506205313 | 60 | 192 | 3.0 | 9.0 | 0.00 | 0.05 | 0.05 | 90 | 1010.3 |
| 20260506204813 | 60 | 168 | 3.0 | 10.0 | 0.00 | 0.05 | 0.05 | 90 | 1010.3 |
| 20260506204531 | 59 | 45 | 4.0 | 10.0 | 0.00 | 0.05 | 0.05 | 90 | 1010.3 |
| 20260506203813 | 59 | 273 | 4.0 | 9.0 | 0.00 | 0.05 | 0.05 | 90 | 1010.3 |
| 20260506203537 | 59 | 150 | 4.0 | 11.0 | 0.01 | 0.05 | 0.05 | 90 | 1010.4 |
| 20260506202810 | 59 | 257 | 5.0 | 11.0 | 0.02 | 0.05 | 0.05 | 90 | 1010.4 |
| 20260506202308 | 59 | 289 | 5.0 | 9.0 | 0.02 | 0.05 | 0.05 | 90 | 1010.4 |
| 20260506201808 | 59 | 206 | 5.0 | 9.0 | 0.03 | 0.05 | 0.05 | 90 | 1010.4 |
| 20260506201308 | 59 | 263 | 4.0 | 11.0 | 0.04 | 0.05 | 0.05 | 90 | 1010.4 |
| 20260506200808 | 59 | 179 | 4.0 | 11.0 | 0.04 | 0.05 | 0.05 | 90 | 1010.5 |
| 20260506200308 | 60 | 247 | 4.0 | 11.0 | 0.04 | 0.05 | 0.05 | 89 | 1010.6 |
| 20260506195808 | 60 | 231 | 4.0 | 7.0 | 0.04 | 0.05 | 0.05 | 89 | 1010.6 |
| 20260506195308 | 60 | 160 | 4.0 | 7.0 | 0.05 | 0.05 | 0.05 | 89 | 1010.5 |
| 20260506194808 | 60 | 173 | 4.0 | 8.0 | 0.05 | 0.05 | 0.05 | 89 | 1010.4 |
| 20260506194530 | 61 | 89 | 4.0 | 8.0 | 0.05 | 0.05 | 0.05 | 88 | 1010.5 |
| 20260506194031 | 61 | 198 | 4.0 | 8.0 | 0.05 | 0.05 | 0.05 | 87 | 1010.6 |
| 20260506193306 | 62 | 172 | 3.0 | 6.0 | 0.04 | 0.04 | 0.04 | 87 | 1010.6 |
| 20260506193027 | 62 | 214 | 3.0 | 8.0 | 0.03 | 0.03 | 0.03 | 86 | 1010.6 |
| 20260506192306 | 62 | 187 | 4.0 | 8.0 | 0.03 | 0.03 | 0.03 | 85 | 1010.6 |
| 20260506191806 | 62 | 203 | 4.0 | 8.0 | 0.02 | 0.02 | 0.02 | 84 | 1010.7 |
| 20260506191307 | 63 | 213 | 4.0 | 10.0 | 0.02 | 0.02 | 0.02 | 83 | 1010.6 |
| 20260506190807 | 63 | 162 | 4.0 | 10.0 | 0.01 | 0.01 | 0.01 | 82 | 1010.7 |
| 20260506190307 | 64 | 207 | 4.0 | 7.0 | 0.01 | 0.01 | 0.01 | 80 | 1010.8 |
| 20260506190031 | 64 | 319 | 4.0 | 9.0 | 0.01 | 0.01 | 0.01 | 79 | 1010.8 |
| 20260506185307 | 64 | 231 | 4.0 | 9.0 | 0.00 | 0.00 | 0.00 | 78 | 1010.9 |
| 20260506185029 | 64 | 178 | 4.0 | 9.0 | 0.00 | 0.00 | 0.00 | 77 | 1011.0 |
| 20260506184308 | 64 | 146 | 4.0 | 9.0 | 0.00 | 0.00 | 0.00 | 77 | 1011.0 |
| 20260506183808 | 65 | 205 | 4.0 | 9.0 | 0.00 | 0.00 | 0.00 | 76 | 1010.8 |
| 20260506183528 | 65 | 187 | 4.0 | 9.0 | 0.00 | 0.00 | 0.00 | 75 | 1010.9 |
| 20260506182809 | 66 | 311 | 4.0 | 9.0 | 0.00 | 0.00 | 0.00 | 74 | 1011.0 |
| 20260506182052 | 66 | 164 | 4.0 | 9.0 | 0.00 | 0.00 | 0.00 | 74 | 1011.1 |
| 20260506181551 | 66 | 177 | 4.0 | 10.0 | 0.00 | 0.00 | 0.00 | 73 | 1011.1 |
| 20260506181046 | 66 | 175 | 5.0 | 10.0 | 0.00 | 0.00 | 0.00 | 73 | 1011.1 |
| 20260506180546 | 66 | 204 | 4.0 | 10.0 | 0.00 | 0.00 | 0.00 | 72 | 1011.0 |
| 20260506180046 | 67 | 162 | 4.0 | 9.0 | 0.00 | 0.00 | 0.00 | 72 | 1011.1 |
| 20260506175546 | 67 | 102 | 4.0 | 9.0 | 0.00 | 0.00 | 0.00 | 71 | 1011.2 |
| 20260506175046 | 67 | 171 | 4.0 | 8.0 | 0.00 | 0.00 | 0.00 | 70 | 1011.3 |
| 20260506174546 | 67 | 211 | 4.0 | 9.0 | 0.00 | 0.00 | 0.00 | 70 | 1011.3 |
| 20260506174313 | 68 | 200 | 4.0 | 9.0 | 0.00 | 0.00 | 0.00 | 69 | 1011.3 |
| 20260506173546 | 68 | 184 | 4.0 | 7.0 | 0.00 | 0.00 | 0.00 | 69 | 1011.4 |
| 20260506173046 | 68 | 203 | 4.0 | 8.0 | 0.00 | 0.00 | 0.00 | 69 | 1011.5 |
| 20260506172542 | 68 | 159 | 4.0 | 8.0 | 0.00 | 0.00 | 0.00 | 68 | 1011.7 |
| 20260506172040 | 68 | 305 | 4.0 | 9.0 | 0.00 | 0.00 | 0.00 | 68 | 1011.7 |
| 20260506171541 | 68 | 10 | 5.0 | 10.0 | 0.00 | 0.00 | 0.00 | 68 | 1011.6 |
| 20260506171041 | 69 | 179 | 5.0 | 10.0 | 0.00 | 0.00 | 0.00 | 68 | 1011.5 |
| 20260506170541 | 69 | 237 | 4.0 | 9.0 | 0.00 | 0.00 | 0.00 | 67 | 1011.5 |
| 20260506170041 | 69 | 246 | 4.0 | 12.0 | 0.00 | 0.00 | 0.00 | 66 | 1011.4 |
| 20260506165541 | 69 | 334 | 4.0 | 12.0 | 0.00 | 0.00 | 0.00 | 68 | 1011.5 |
| 20260506165041 | 69 | 185 | 5.0 | 14.0 | 0.00 | 0.00 | 0.00 | 66 | 1011.6 |
| 20260506164541 | 69 | 113 | 5.0 | 14.0 | 0.00 | 0.00 | 0.00 | 66 | 1011.7 |
| 20260506164041 | 69 | 249 | 5.0 | 14.0 | 0.00 | 0.00 | 0.00 | 67 | 1011.8 |
| 20260506164022 | 69 | 160 | 6.0 | 12.0 | 0.00 | 0.00 | 0.00 | 66 | 1012.0 |
| 20260506163042 | 69 | 229 | 6.0 | 12.0 | 0.00 | 0.00 | 0.00 | 66 | 1012.0 |
| 20260506162541 | 69 | 169 | 6.0 | 14.0 | 0.00 | 0.00 | 0.00 | 66 | 1012.2 |
| 20260506162041 | 69 | 172 | 6.0 | 14.0 | 0.00 | 0.00 | 0.00 | 65 | 1012.2 |
| 20260506161541 | 69 | 180 | 6.0 | 10.0 | 0.00 | 0.00 | 0.00 | 66 | 1012.0 |
| 20260506161304 | 69 | 188 | 5.0 | 9.0 | 0.00 | 0.00 | 0.00 | 65 | 1012.2 |
| 20260506160541 | 70 | 175 | 4.0 | 8.0 | 0.00 | 0.00 | 0.00 | 66 | 1012.3 |
| 20260506160036 | 70 | 172 | 3.0 | 8.0 | 0.00 | 0.00 | 0.00 | 66 | 1012.3 |
| 20260506155536 | 70 | 144 | 4.0 | 10.0 | 0.00 | 0.00 | 0.00 | 65 | 1012.4 |
| 20260506155037 | 70 | 262 | 5.0 | 12.0 | 0.00 | 0.00 | 0.00 | 64 | 1012.5 |
| 20260506154536 | 70 | 268 | 4.0 | 12.0 | 0.00 | 0.00 | 0.00 | 64 | 1012.6 |
| 20260506154036 | 70 | 226 | 4.0 | 9.0 | 0.00 | 0.00 | 0.00 | 65 | 1012.5 |
| 20260506153536 | 70 | 135 | 5.0 | 9.0 | 0.00 | 0.00 | 0.00 | 65 | 1012.5 |
| 20260506153036 | 70 | 191 | 5.0 | 11.0 | 0.00 | 0.00 | 0.00 | 65 | 1012.6 |
| 20260506152802 | 70 | 208 | 4.0 | 11.0 | 0.00 | 0.00 | 0.00 | 66 | 1012.7 |
| 20260506152036 | 69 | 184 | 3.0 | 12.0 | 0.00 | 0.00 | 0.00 | 68 | 1012.7 |
| 20260506151536 | 69 | 168 | 4.0 | 12.0 | 0.00 | 0.00 | 0.00 | 68 | 1012.8 |
| 20260506151036 | 69 | 299 | 4.0 | 10.0 | 0.00 | 0.00 | 0.00 | 69 | 1012.7 |
| 20260506150536 | 69 | 164 | 4.0 | 8.0 | 0.00 | 0.00 | 0.00 | 68 | 1012.8 |
| 20260506150036 | 68 | 160 | 3.0 | 8.0 | 0.00 | 0.00 | 0.00 | 69 | 1012.9 |
| 20260506145536 | 68 | 175 | 4.0 | 10.0 | 0.00 | 0.00 | 0.00 | 70 | 1012.8 |
| 20260506145251 | 68 | 253 | 4.0 | 11.0 | 0.00 | 0.00 | 0.00 | 71 | 1012.8 |
| 20260506144756 | 68 | 280 | 4.0 | 11.0 | 0.00 | 0.00 | 0.00 | 70 | 1012.8 |
| 20260506144030 | 68 | 176 | 3.0 | 8.0 | 0.00 | 0.00 | 0.00 | 70 | 1012.8 |
| 20260506143531 | 68 | 278 | 4.0 | 8.0 | 0.00 | 0.00 | 0.00 | 69 | 1012.7 |
| 20260506143031 | 68 | 264 | 5.0 | 10.0 | 0.00 | 0.00 | 0.00 | 69 | 1012.7 |
| 20260506142531 | 68 | 170 | 5.0 | 12.0 | 0.00 | 0.00 | 0.00 | 69 | 1012.6 |
| 20260506142031 | 68 | 164 | 5.0 | 12.0 | 0.00 | 0.00 | 0.00 | 69 | 1012.6 |
| 20260506141531 | 68 | 24 | 5.0 | 12.0 | 0.00 | 0.00 | 0.00 | 68 | 1012.7 |
| 20260506141031 | 68 | 178 | 5.0 | 12.0 | 0.00 | 0.00 | 0.00 | 68 | 1012.8 |
| 20260506140531 | 68 | 250 | 5.0 | 12.0 | 0.00 | 0.00 | 0.00 | 68 | 1012.9 |
| 20260506140031 | 68 | 287 | 4.0 | 12.0 | 0.00 | 0.00 | 0.00 | 68 | 1012.7 |
| 20260506135531 | 67 | 204 | 4.0 | 9.0 | 0.00 | 0.00 | 0.00 | 70 | 1012.7 |
| 20260506135031 | 67 | 177 | 5.0 | 10.0 | 0.00 | 0.00 | 0.00 | 69 | 1012.6 |
| 20260506134531 | 67 | 185 | 6.0 | 10.0 | 0.00 | 0.00 | 0.00 | 70 | 1012.7 |
| 20260506134257 | 67 | 211 | 6.0 | 10.0 | 0.00 | 0.00 | 0.00 | 70 | 1012.9 |
| 20260506133525 | 67 | 182 | 5.0 | 9.0 | 0.00 | 0.00 | 0.00 | 71 | 1012.9 |
| 20260506133026 | 67 | 169 | 4.0 | 9.0 | 0.00 | 0.00 | 0.00 | 71 | 1013.1 |
| 20260506132526 | 66 | 176 | 4.0 | 9.0 | 0.00 | 0.00 | 0.00 | 73 | 1013.2 |
| 20260506132027 | 65 | 263 | 4.0 | 11.0 | 0.00 | 0.00 | 0.00 | 74 | 1013.3 |
| 20260506131526 | 65 | 311 | 4.0 | 11.0 | 0.00 | 0.00 | 0.00 | 75 | 1013.3 |
| 20260506131026 | 65 | 241 | 4.0 | 9.0 | 0.00 | 0.00 | 0.00 | 76 | 1013.3 |
| 20260506130747 | 64 | 221 | 4.0 | 9.0 | 0.00 | 0.00 | 0.00 | 76 | 1013.3 |
| 20260506130026 | 64 | 200 | 4.0 | 9.0 | 0.00 | 0.00 | 0.00 | 77 | 1013.2 |
| 20260506125526 | 64 | 269 | 5.0 | 14.0 | 0.00 | 0.00 | 0.00 | 78 | 1013.2 |
| 20260506125026 | 63 | 195 | 5.0 | 14.0 | 0.00 | 0.00 | 0.00 | 79 | 1013.2 |
| 20260506124526 | 63 | 263 | 5.0 | 12.0 | 0.00 | 0.00 | 0.00 | 80 | 1013.3 |
| 20260506124026 | 63 | 175 | 4.0 | 8.0 | 0.00 | 0.00 | 0.00 | 80 | 1013.3 |
| 20260506123526 | 63 | 262 | 4.0 | 8.0 | 0.00 | 0.00 | 0.00 | 81 | 1013.2 |
| 20260506123020 | 62 | 220 | 4.0 | 8.0 | 0.00 | 0.00 | 0.00 | 81 | 1013.3 |
| 20260506122746 | 62 | 199 | 3.0 | 7.0 | 0.00 | 0.00 | 0.00 | 82 | 1013.2 |
| 20260506122505 | 62 | 167 | 3.0 | 6.0 | 0.00 | 0.00 | 0.00 | 83 | 1013.2 |
| 20260506121520 | 62 | 181 | 3.0 | 8.0 | 0.00 | 0.00 | 0.00 | 83 | 1013.2 |
| 20260506121015 | 61 | 288 | 3.0 | 8.0 | 0.00 | 0.00 | 0.00 | 84 | 1013.2 |
| 20260506120739 | 61 | 146 | 3.0 | 6.0 | 0.00 | 0.00 | 0.00 | 84 | 1013.4 |
| 20260506120015 | 61 | 158 | 4.0 | 6.0 | 0.00 | 0.00 | 0.00 | 85 | 1013.5 |
| 20260506115515 | 60 | 176 | 4.0 | 6.0 | 0.00 | 0.00 | 0.00 | 86 | 1013.5 |
| 20260506115014 | 60 | 244 | 3.0 | 5.0 | 0.00 | 0.00 | 0.00 | 86 | 1013.7 |
| 20260506114744 | 60 | 210 | 3.0 | 8.0 | 0.00 | 0.00 | 0.00 | 86 | 1013.8 |
| 20260506114009 | 60 | 155 | 3.0 | 9.0 | 0.00 | 0.00 | 0.00 | 86 | 1013.8 |
| 20260506113510 | 60 | 181 | 3.0 | 9.0 | 0.00 | 0.00 | 0.00 | 86 | 1013.8 |
| 20260506113232 | 60 | 177 | 3.0 | 6.0 | 0.00 | 0.00 | 0.00 | 87 | 1013.8 |
| 20260506112733 | 59 | 187 | 3.0 | 6.0 | 0.00 | 0.00 | 0.00 | 87 | 1013.8 |
| 20260506112003 | 59 | 176 | 3.0 | 6.0 | 0.00 | 0.00 | 0.00 | 88 | 1013.8 |
| 20260506111722 | 59 | 174 | 2.0 | 4.0 | 0.00 | 0.00 | 0.00 | 88 | 1013.8 |
| 20260506111000 | 58 | 176 | 3.0 | 4.0 | 0.00 | 0.00 | 0.00 | 89 | 1013.7 |
| 20260506110721 | 58 | 188 | 3.0 | 4.0 | 0.00 | 0.00 | 0.00 | 89 | 1013.7 |
| 20260506110222 | 58 | 177 | 2.0 | 4.0 | 0.00 | 0.00 | 0.00 | 89 | 1013.6 |
| 20260506105501 | 58 | 202 | 2.0 | 5.0 | 0.00 | 0.00 | 0.00 | 88 | 1013.6 |
| 20260506105001 | 58 | 221 | 2.0 | 5.0 | 0.00 | 0.00 | 0.00 | 88 | 1013.6 |
| 20260506104501 | 58 | 148 | 2.0 | 5.0 | 0.00 | 0.00 | 0.00 | 88 | 1013.6 |
| 20260506104000 | 58 | 182 | 3.0 | 4.0 | 0.00 | 0.00 | 0.00 | 88 | 1013.7 |
| 20260506103502 | 58 | 163 | 3.0 | 5.0 | 0.00 | 0.00 | 0.00 | 88 | 1013.6 |
| 20260506102952 | 58 | 206 | 3.0 | 5.0 | 0.00 | 0.00 | 0.00 | 88 | 1013.6 |
| 20260506102446 | 58 | 163 | 3.0 | 5.0 | 0.00 | 0.00 | 0.00 | 88 | 1013.5 |
| 20260506101946 | 58 | 174 | 3.0 | 6.0 | 0.00 | 0.00 | 0.00 | 88 | 1013.5 |
| 20260506101434 | 58 | 185 | 3.0 | 6.0 | 0.00 | 0.00 | 0.00 | 88 | 1013.5 |
| 20260506101201 | 58 | 220 | 3.0 | 8.0 | 0.00 | 0.00 | 0.00 | 88 | 1013.5 |
| 20260506100434 | 58 | 198 | 4.0 | 8.0 | 0.00 | 0.00 | 0.00 | 88 | 1013.5 |
| 20260506095934 | 58 | 253 | 4.0 | 8.0 | 0.00 | 0.00 | 0.00 | 87 | 1013.4 |
| 20260506095435 | 58 | 153 | 4.0 | 7.0 | 0.00 | 0.00 | 0.00 | 87 | 1013.3 |
| 20260506094935 | 58 | 170 | 3.0 | 9.0 | 0.00 | 0.00 | 0.00 | 87 | 1013.3 |
| 20260506094435 | 58 | 184 | 3.0 | 9.0 | 0.00 | 0.00 | 0.00 | 87 | 1013.3 |
| 20260506094159 | 58 | 186 | 3.0 | 6.0 | 0.00 | 0.00 | 0.00 | 87 | 1013.2 |
| 20260506093424 | 59 | 338 | 4.0 | 7.0 | 0.00 | 0.00 | 0.00 | 87 | 1013.3 |
| 20260506092923 | 59 | 161 | 4.0 | 8.0 | 0.00 | 0.00 | 0.00 | 87 | 1013.3 |
| 20260506092423 | 59 | 195 | 4.0 | 8.0 | 0.00 | 0.00 | 0.00 | 87 | 1013.3 |
| 20260506091923 | 59 | 263 | 4.0 | 7.0 | 0.00 | 0.00 | 0.00 | 86 | 1013.4 |
| 20260506091417 | 59 | 176 | 4.0 | 7.0 | 0.00 | 0.00 | 0.00 | 86 | 1013.3 |
| 20260506090918 | 59 | 226 | 4.0 | 8.0 | 0.00 | 0.00 | 0.00 | 86 | 1013.4 |
| 20260506090417 | 59 | 268 | 4.0 | 8.0 | 0.00 | 0.00 | 0.00 | 86 | 1013.5 |
| 20260506085918 | 59 | 255 | 4.0 | 8.0 | 0.00 | 0.00 | 0.00 | 86 | 1013.5 |
| 20260506085417 | 59 | 227 | 4.0 | 8.0 | 0.00 | 0.00 | 0.00 | 86 | 1013.5 |
| 20260506085137 | 59 | 160 | 4.0 | 9.0 | 0.00 | 0.00 | 0.00 | 86 | 1013.5 |
| 20260506084419 | 59 | 150 | 4.0 | 10.0 | 0.00 | 0.00 | 0.00 | 85 | 1013.6 |
| 20260506083918 | 60 | 240 | 5.0 | 10.0 | 0.00 | 0.00 | 0.00 | 85 | 1013.6 |
| 20260506083642 | 60 | 224 | 4.0 | 9.0 | 0.00 | 0.00 | 0.00 | 85 | 1013.6 |
| 20260506082917 | 60 | 222 | 4.0 | 10.0 | 0.00 | 0.00 | 0.00 | 85 | 1013.6 |
| 20260506082417 | 60 | 174 | 5.0 | 10.0 | 0.00 | 0.00 | 0.00 | 85 | 1013.5 |
| 20260506081913 | 60 | 208 | 4.0 | 9.0 | 0.00 | 0.00 | 0.00 | 84 | 1013.6 |
| 20260506081408 | 60 | 214 | 5.0 | 9.0 | 0.00 | 0.00 | 0.00 | 84 | 1013.5 |
| 20260506081349 | 60 | 233 | 4.0 | 9.0 | 0.00 | 0.00 | 0.00 | 84 | 1013.6 |
| 20260506080406 | 60 | 181 | 4.0 | 9.0 | 0.00 | 0.00 | 0.00 | 84 | 1013.5 |
| 20260506072907 | 61 | 277 | 5.0 | 11.0 | 0.00 | 0.00 | 0.00 | 82 | 1013.3 |
| 20260506072407 | 61 | 261 | 5.0 | 10.0 | 0.00 | 0.00 | 0.00 | 82 | 1013.4 |
| 20260506072124 | 61 | 266 | 4.0 | 10.0 | 0.00 | 0.00 | 0.00 | 83 | 1013.4 |
| 20260506071407 | 61 | 231 | 4.0 | 8.0 | 0.00 | 0.00 | 0.00 | 82 | 1013.3 |
| 20260506070901 | 61 | 231 | 4.0 | 9.0 | 0.00 | 0.00 | 0.00 | 82 | 1013.3 |
| 20260506070623 | 61 | 262 | 4.0 | 9.0 | 0.00 | 0.00 | 0.00 | 82 | 1013.3 |
| 20260506062402 | 61 | 186 | 5.0 | 11.0 | 0.00 | 0.00 | 0.00 | 82 | 1013.3 |
| 20260506061902 | 61 | 183 | 4.0 | 9.0 | 0.00 | 0.00 | 0.00 | 81 | 1013.2 |
| 20260506061622 | 61 | 198 | 4.0 | 9.0 | 0.00 | 0.00 | 0.00 | 81 | 1013.2 |
| 20260506060903 | 61 | 157 | 4.0 | 12.0 | 0.00 | 0.00 | 0.00 | 81 | 1013.3 |
| 20260506060359 | 61 | 251 | 4.0 | 12.0 | 0.00 | 0.00 | 0.00 | 80 | 1013.3 |
| 20260506051351 | 62 | 165 | 4.0 | 9.0 | 0.00 | 0.00 | 0.00 | 77 | 1013.8 |
| 20260506050852 | 62 | 259 | 4.0 | 9.0 | 0.00 | 0.00 | 0.00 | 76 | 1013.9 |
| 20260506050351 | 62 | 230 | 4.0 | 10.0 | 0.00 | 0.00 | 0.00 | 76 | 1013.9 |
| 20260506045113 | 62 | 264 | 4.0 | 8.0 | 0.00 | 0.00 | 0.00 | 75 | 1013.9 |
| 20260506044615 | 62 | 120 | 4.0 | 9.0 | 0.00 | 0.00 | 0.00 | 75 | 1014.0 |
| 20260506043840 | 62 | 248 | 4.0 | 10.0 | 0.00 | 0.00 | 0.00 | 74 | 1014.0 |
| 20260506043340 | 62 | 37 | 4.0 | 10.0 | 0.00 | 0.00 | 0.00 | 74 | 1013.9 |
| 20260506042840 | 62 | 145 | 4.0 | 9.0 | 0.00 | 0.00 | 0.00 | 74 | 1014.0 |
| 20260506042340 | 62 | 163 | 4.0 | 10.0 | 0.00 | 0.00 | 0.00 | 74 | 1014.0 |
| 20260506041840 | 62 | 267 | 4.0 | 10.0 | 0.00 | 0.00 | 0.00 | 73 | 1014.0 |
| 20260506041600 | 62 | 169 | 4.0 | 9.0 | 0.00 | 0.00 | 0.00 | 73 | 1014.0 |
| 20260506040840 | 62 | 158 | 4.0 | 7.0 | 0.00 | 0.00 | 0.00 | 73 | 1014.0 |
| 20260506040340 | 62 | 241 | 4.0 | 9.0 | 0.00 | 0.00 | 0.00 | 73 | 1013.9 |
| 20260506035840 | 62 | 175 | 4.0 | 10.0 | 0.00 | 0.00 | 0.00 | 72 | 1014.0 |
| 20260506035340 | 62 | 239 | 4.0 | 11.0 | 0.00 | 0.00 | 0.00 | 72 | 1013.9 |
| 20260506034840 | 62 | 219 | 4.0 | 11.0 | 0.00 | 0.00 | 0.00 | 72 | 1013.9 |
| 20260506034340 | 62 | 233 | 4.0 | 11.0 | 0.00 | 0.00 | 0.00 | 71 | 1013.9 |
| 20260506033841 | 63 | 175 | 4.0 | 11.0 | 0.00 | 0.00 | 0.00 | 71 | 1013.8 |
| 20260506033606 | 63 | 257 | 4.0 | 8.0 | 0.00 | 0.00 | 0.00 | 71 | 1013.8 |
| 20260506032835 | 63 | 328 | 4.0 | 8.0 | 0.00 | 0.00 | 0.00 | 70 | 1013.8 |
| 20260506032334 | 63 | 152 | 4.0 | 10.0 | 0.00 | 0.00 | 0.00 | 70 | 1013.8 |
| 20260506031834 | 63 | 270 | 4.0 | 10.0 | 0.00 | 0.00 | 0.00 | 70 | 1013.8 |
| 20260506031554 | 63 | 185 | 4.0 | 9.0 | 0.00 | 0.00 | 0.00 | 70 | 1013.7 |
| 20260506031052 | 63 | 186 | 5.0 | 9.0 | 0.00 | 0.00 | 0.00 | 69 | 1013.7 |
| 20260506030335 | 63 | 174 | 5.0 | 10.0 | 0.00 | 0.00 | 0.00 | 69 | 1013.6 |
| 20260506025835 | 63 | 351 | 4.0 | 10.0 | 0.00 | 0.00 | 0.00 | 69 | 1013.6 |
| 20260506025334 | 63 | 158 | 4.0 | 9.0 | 0.00 | 0.00 | 0.00 | 69 | 1013.7 |
| 20260506024836 | 63 | 150 | 4.0 | 11.0 | 0.00 | 0.00 | 0.00 | 69 | 1013.7 |
| 20260506024332 | 63 | 199 | 4.0 | 11.0 | 0.00 | 0.00 | 0.00 | 69 | 1013.6 |
| 20260506024052 | 63 | 184 | 4.0 | 11.0 | 0.00 | 0.00 | 0.00 | 69 | 1013.6 |
| 20260506023332 | 63 | 174 | 4.0 | 11.0 | 0.00 | 0.00 | 0.00 | 69 | 1013.5 |
| 20260506023048 | 63 | 220 | 4.0 | 10.0 | 0.00 | 0.00 | 0.00 | 69 | 1013.6 |
| 20260506022327 | 63 | 183 | 4.0 | 12.0 | 0.00 | 0.00 | 0.00 | 69 | 1013.6 |
| 20260506021824 | 63 | 207 | 4.0 | 12.0 | 0.00 | 0.00 | 0.00 | 69 | 1013.6 |
| 20260506021324 | 63 | 139 | 4.0 | 9.0 | 0.00 | 0.00 | 0.00 | 69 | 1013.6 |
| 20260506020823 | 63 | 157 | 5.0 | 10.0 | 0.00 | 0.00 | 0.00 | 69 | 1013.6 |
| 20260506020325 | 63 | 180 | 5.0 | 10.0 | 0.00 | 0.00 | 0.00 | 69 | 1013.5 |
| 20260506015824 | 63 | 171 | 4.0 | 9.0 | 0.00 | 0.00 | 0.00 | 70 | 1013.6 |
| 20260506015324 | 62 | 267 | 4.0 | 8.0 | 0.00 | 0.00 | 0.00 | 70 | 1013.6 |
| 20260506014824 | 62 | 192 | 5.0 | 9.0 | 0.00 | 0.00 | 0.00 | 70 | 1013.6 |
| 20260506014543 | 62 | 268 | 4.0 | 9.0 | 0.00 | 0.00 | 0.00 | 70 | 1013.6 |
| 20260506013823 | 62 | 255 | 4.0 | 9.0 | 0.00 | 0.00 | 0.00 | 70 | 1013.5 |
| 20260506013323 | 62 | 213 | 4.0 | 9.0 | 0.00 | 0.00 | 0.00 | 70 | 1013.5 |
| 20260506012819 | 62 | 158 | 4.0 | 11.0 | 0.00 | 0.00 | 0.00 | 70 | 1013.5 |
| 20260506012319 | 62 | 218 | 4.0 | 11.0 | 0.00 | 0.00 | 0.00 | 69 | 1013.5 |
| 20260506011818 | 62 | 214 | 4.0 | 9.0 | 0.00 | 0.00 | 0.00 | 69 | 1013.4 |
| 20260506011319 | 62 | 279 | 5.0 | 9.0 | 0.00 | 0.00 | 0.00 | 69 | 1013.3 |
| 20260506010818 | 62 | 214 | 5.0 | 9.0 | 0.00 | 0.00 | 0.00 | 69 | 1013.3 |